Big Rapids, MI

6:13 AM EDT on August 19, 2017 (GMT -0400)
Roben-Hood

Weather History for KRQB - September, 2013

Change the Weather History Date:

Thursday, September 19, 2013

  Actual Average Record
Temperature  
Mean Temperature 68 °F -  
Max Temperature 74 °F 69 °F 86 °F (2000)
Min Temperature 61 °F 46 °F 34 °F (1979)
Cooling Degree Days 2    
Growing Degree Days 18 (Base 50)    
Moisture  
Dew Point 63 °F    
Average Humidity 83    
Maximum Humidity 100    
Minimum Humidity 69    
Precipitation  
Precipitation 0.18 in - - ()
Sea Level Pressure  
Sea Level Pressure 29.94 in    
Wind  
Wind Speed 6 mph (South)    
Max Wind Speed 14 mph    
Max Gust Speed 23 mph    
Visibility 9 miles    
Events Rain    
Averages and records for this station are not official NWS values.
T = Trace of Precipitation, MM = Missing Value Source: NWS Daily Summary

Daily Weather History Graph

Daily Weather History Graph

Search for Another Location

Airport or City:

Trip Planner

Search our weather history database for the weather conditions in past years. The results will help you decide how hot, cold, wet, or windy it might be!

Date:

Astronomy

Sep. 19, 2013 Rise Set
Actual Time 7:26 AM EDT 7:44 PM EDT
Civil Twilight 6:57 AM EDT 8:13 PM EDT
Nautical Twilight 6:23 AM EDT 8:46 PM EDT
Astronomical Twilight 5:48 AM EDT 9:21 PM EDT
Moon 7:39 PM EDT 7:36 AM EDT
Length of Visible Light 13h 15m
Length of Day
12h 18m
Full, 100% of the Moon is Illuminated
Sep 19
Full
Sep 26
Last Quarter
Oct 4
New
Oct 11
First Quarter
Oct 18
Full

Hourly Weather History & Observations

Time (EDT) Temp. Dew Point Humidity Pressure Visibility Wind Dir Wind Speed Gust Speed Precip Events Conditions
12:15 AM 61.9 °F 53.6 °F 74% 29.99 in 10.0 mi SE 6.9 mph - N/A   Clear
12:35 AM 64.0 °F 53.6 °F 69% 30.00 in 10.0 mi SSE 4.6 mph - N/A   Scattered Clouds
12:54 AM 63.7 °F 53.8 °F 70% 30.00 in 10.0 mi ESE 6.9 mph - N/A   Overcast
1:15 AM 63.0 °F 54.0 °F 72% 29.99 in 10.0 mi East 6.9 mph - N/A   Mostly Cloudy
1:35 AM 62.6 °F 54.1 °F 74% 29.99 in 10.0 mi Calm Calm - N/A   Mostly Cloudy
1:54 AM 63.0 °F 54.3 °F 73% 29.99 in 10.0 mi SE 5.8 mph - N/A   Overcast
2:15 AM 64.6 °F 54.3 °F 69% 29.99 in 10.0 mi SE 5.8 mph - N/A   Overcast
2:35 AM 64.8 °F 54.9 °F 70% 29.98 in 10.0 mi SE 5.8 mph - N/A   Overcast
2:54 AM 64.8 °F 55.6 °F 72% 29.98 in 10.0 mi SE 5.8 mph - N/A   Overcast
3:15 AM 64.0 °F 56.3 °F 76% 29.98 in 10.0 mi Calm Calm - N/A   Overcast
3:35 AM 64.4 °F 56.3 °F 75% 29.97 in 10.0 mi Calm Calm - N/A   Overcast
3:54 AM 63.9 °F 56.3 °F 76% 29.97 in 10.0 mi ESE 3.5 mph - N/A   Overcast
4:15 AM 63.9 °F 56.3 °F 76% 29.96 in 10.0 mi Calm Calm - N/A   Mostly Cloudy
4:35 AM 64.2 °F 56.5 °F 76% 29.97 in 10.0 mi SW 3.5 mph - N/A   Overcast
4:54 AM 63.5 °F 56.3 °F 77% 29.96 in 10.0 mi Calm Calm - N/A   Mostly Cloudy
5:15 AM 63.3 °F 56.7 °F 79% 29.99 in 10.0 mi Calm Calm - N/A   Mostly Cloudy
5:35 AM 63.5 °F 57.0 °F 79% 29.97 in 10.0 mi SE 5.8 mph - N/A   Overcast
5:54 AM 63.1 °F 57.0 °F 80% 29.98 in 7.0 mi WNW 5.8 mph - 0.01 in Rain Heavy Rain
6:15 AM 61.7 °F 60.6 °F 96% 29.99 in 7.0 mi SW 3.5 mph - 0.01 in Rain Light Rain
6:35 AM 61.0 °F 61.0 °F 100% 29.97 in 7.0 mi South 6.9 mph - 0.01 in Rain Light Rain
6:55 AM 61.7 °F 61.3 °F 99% 29.99 in 7.0 mi South 3.5 mph - 0.02 in Rain Rain
7:15 AM 61.2 °F 61.2 °F 100% 30.01 in 5.0 mi Calm Calm - 0.03 in Rain Rain
7:34 AM 61.0 °F 61.0 °F 100% 30.00 in 5.0 mi South 4.6 mph - 0.04 in Rain Light Rain
7:55 AM 61.2 °F 61.2 °F 100% 29.99 in 7.0 mi Calm Calm - 0.05 in Rain Light Rain
8:15 AM 61.0 °F 61.0 °F 100% 30.00 in 5.0 mi South 3.5 mph - N/A   Overcast
8:34 AM 61.2 °F 61.2 °F 100% 30.00 in 3.0 mi ENE 3.5 mph - 0.01 in Rain Rain
8:55 AM 62.2 °F 62.2 °F 100% 29.99 in 5.0 mi Calm Calm - 0.02 in Rain Light Rain
9:15 AM 64.6 °F 64.6 °F 100% 29.99 in 10.0 mi NW 6.9 mph - N/A   Overcast
9:34 AM 63.9 °F 63.9 °F 100% 29.98 in 3.0 mi Calm Calm - 0.03 in Rain Heavy Rain
9:55 AM 64.4 °F 64.4 °F 100% 29.96 in 5.0 mi ESE 4.6 mph - 0.08 in   Overcast
10:15 AM 66.9 °F 66.9 °F 100% 29.95 in 10.0 mi Calm Calm - N/A   Mostly Cloudy
10:34 AM 70.5 °F 68.5 °F 93% 29.96 in 10.0 mi SW 5.8 mph - N/A   Scattered Clouds
10:55 AM 73.2 °F 69.1 °F 87% 29.96 in 10.0 mi SW 9.2 mph - N/A   Scattered Clouds
11:15 AM 74.3 °F 65.8 °F 75% 29.96 in 10.0 mi SW 8.1 mph - N/A   Scattered Clouds
11:35 AM 74.5 °F 65.7 °F 74% 29.96 in 10.0 mi SW 10.4 mph 21.9 mph N/A   Clear
11:55 AM 73.6 °F 65.3 °F 75% 29.97 in 10.0 mi SW 11.5 mph 21.9 mph N/A   Scattered Clouds
12:14 PM 72.0 °F 65.3 °F 79% 29.97 in 10.0 mi SW 10.4 mph 19.6 mph N/A   Mostly Cloudy
12:35 PM 71.8 °F 66.0 °F 82% 29.96 in 10.0 mi SW 6.9 mph 18.4 mph N/A   Scattered Clouds
12:55 PM 71.6 °F 66.0 °F 82% 29.95 in 10.0 mi SW 11.5 mph 18.4 mph N/A   Mostly Cloudy
1:14 PM 72.0 °F 66.2 °F 82% 29.93 in 10.0 mi SW 13.8 mph 20.7 mph N/A   Overcast
1:35 PM 74.3 °F 67.1 °F 78% 29.92 in 10.0 mi SSW 12.7 mph 20.7 mph N/A   Mostly Cloudy
1:55 PM 73.4 °F 66.9 °F 80% 29.92 in 10.0 mi SSW 8.1 mph 20.7 mph N/A   Scattered Clouds
2:14 PM 73.6 °F 67.3 °F 81% 29.92 in 10.0 mi SSW 10.4 mph 20.7 mph N/A   Mostly Cloudy
2:35 PM 73.4 °F 67.1 °F 81% 29.92 in 10.0 mi SW 9.2 mph 23.0 mph N/A   Overcast
2:55 PM 73.0 °F 66.9 °F 81% 29.92 in 10.0 mi South 8.1 mph - N/A   Overcast
3:14 PM 73.6 °F 66.9 °F 80% 29.92 in 10.0 mi SSW 6.9 mph 16.1 mph N/A   Overcast
3:35 PM 74.5 °F 66.9 °F 77% 29.92 in 10.0 mi South 9.2 mph - N/A   Overcast
3:55 PM 74.5 °F 66.6 °F 76% 29.92 in 10.0 mi South 8.1 mph - N/A   Mostly Cloudy
4:14 PM 74.1 °F 66.4 °F 77% 29.92 in 10.0 mi SSW 9.2 mph - N/A   Mostly Cloudy
4:35 PM 73.4 °F 66.4 °F 79% 29.92 in 10.0 mi South 5.8 mph - N/A   Overcast
4:55 PM 72.5 °F 67.1 °F 83% 29.92 in 10.0 mi SSE 6.9 mph - N/A   Overcast
5:14 PM 72.5 °F 67.1 °F 83% 29.90 in 10.0 mi SSE 10.4 mph - N/A   Overcast
5:35 PM 74.3 °F 67.3 °F 79% 29.89 in 10.0 mi South 11.5 mph - N/A   Mostly Cloudy
5:55 PM 73.9 °F 66.7 °F 78% 29.88 in 10.0 mi South 10.4 mph - N/A   Scattered Clouds
6:14 PM 73.9 °F 66.2 °F 77% 29.87 in 10.0 mi South 8.1 mph - N/A   Scattered Clouds
6:35 PM 74.3 °F 64.9 °F 72% 29.87 in 10.0 mi South 11.5 mph 17.3 mph N/A   Clear
6:55 PM 73.8 °F 64.9 °F 74% 29.86 in 10.0 mi South 11.5 mph 16.1 mph N/A   Clear
7:14 PM 72.7 °F 64.4 °F 75% 29.87 in 10.0 mi South 12.7 mph 20.7 mph N/A   Clear
7:35 PM 71.4 °F 64.0 °F 77% 29.86 in 10.0 mi SSE 11.5 mph - N/A   Scattered Clouds
7:55 PM 70.7 °F 64.2 °F 80% 29.87 in 10.0 mi SSE 9.2 mph 17.3 mph N/A   Clear
8:14 PM 69.8 °F 64.4 °F 83% 29.87 in 10.0 mi SSE 5.8 mph - N/A   Clear
8:35 PM 69.4 °F 64.4 °F 84% 29.88 in 10.0 mi SSE 6.9 mph - N/A   Mostly Cloudy
8:55 PM 69.6 °F 64.6 °F 84% 29.88 in 10.0 mi SSE 8.1 mph - N/A   Overcast
9:14 PM 69.4 °F 64.8 °F 85% 29.88 in 10.0 mi SSE 6.9 mph - N/A   Overcast
9:35 PM 69.3 °F 64.9 °F 86% 29.87 in 10.0 mi SSE 9.2 mph 16.1 mph N/A   Mostly Cloudy
9:55 PM 69.4 °F 64.8 °F 85% 29.85 in 10.0 mi SSE 10.4 mph - N/A   Clear
10:14 PM 69.1 °F 65.5 °F 88% 29.84 in 10.0 mi SSE 11.5 mph 17.3 mph N/A   Clear
10:35 PM 69.3 °F 65.3 °F 87% 29.83 in 10.0 mi SSE 9.2 mph 17.3 mph N/A   Clear
10:55 PM 69.4 °F 65.3 °F 87% 29.85 in 10.0 mi SSW 6.9 mph - N/A   Mostly Cloudy
11:14 PM 70.0 °F 64.8 °F 83% 29.84 in 10.0 mi South 10.4 mph 20.7 mph N/A   Scattered Clouds
11:35 PM 69.8 °F 64.6 °F 83% 29.83 in 10.0 mi South 8.1 mph - N/A   Clear
11:54 PM 68.7 °F 66.0 °F 91% 29.82 in 10.0 mi SSE 5.8 mph - N/A   Clear